Fasat-Charlie

operational
NORAD ID: 38011 Int'l Des: 2011-076 Owner: FACH Country: CL
LEOCIRCULARRETROGRADESSO

About Fasat-Charlie

Description loading...

Live Position

Loading 3D Globe...

Upcoming Passes

Altitude History

Altitude vs Time

uPlot chart will show altitude changes over time

Two-Line Element Set

1 38011U 11076E 26062.66524919 .00001199 00000-0 15668-3 0 9995
2 38011 97.8206 125.5346 0001585 93.5729 67.1394 14.82249773768746
Epoch: Mar 3, 2026 • Age: 35 hours

Current Status

Altitude 625.0 km
Velocity 7.55 km/s
Sub-Earth Point 26.41°N, 158.13°E
Launch Date Dec 17, 2011
Age 14.2 years
Type other

Technical Details

Classification Payload
Mass 116.00 kg
Dry Mass 116.00 kg
Total Mass 116.00 kg
Length 0.60 m
Diameter 1.00 m
Span 1.00 m
Shape Box + Pan
Manufacturer ASTT
Bus Type Myriade
Phase Status In Orbit
Owner/State FACH/CL

Large Constellations

Loading constellations...